Burns Flat, OK

7:33 AM CDT on July 30, 2016 (GMT -0500)
Clinton-Sherman

Weather History for KCSM - October, 2010

Change the Weather History Date:

Tuesday, October 26, 2010

  Actual Average Record
Temperature  
Mean Temperature 58 °F -  
Max Temperature 68 °F 65 °F 91 °F (2014)
Min Temperature 48 °F 46 °F 30 °F (1997)
Degree Days  
Heating Degree Days 7    
Growing Degree Days 8 (Base 50)    
Moisture  
Dew Point 35 °F    
Average Humidity 47    
Maximum Humidity 69    
Minimum Humidity 21    
Precipitation  
Precipitation 0.00 in - - ()
Sea Level Pressure  
Sea Level Pressure 29.66 in    
Wind  
Wind Speed 12 mph (WSW)    
Max Wind Speed 21 mph    
Max Gust Speed 25 mph    
Visibility 10 miles    
Events      
Averages and records for this station are not official NWS values.
T = Trace of Precipitation, MM = Missing Value Source: NWS Daily Summary

Daily Weather History Graph

Daily Weather History Graph

Search for Another Location

Airport or City:

Trip Planner

Search our weather history database for the weather conditions in past years. The results will help you decide how hot, cold, wet, or windy it might be!

Date:

Astronomy

Oct. 26, 2010 Rise Set
Actual Time 7:52 AM CDT 6:48 PM CDT
Civil Twilight 7:26 AM CDT 7:14 PM CDT
Nautical Twilight 6:56 AM CDT 7:44 PM CDT
Astronomical Twilight 6:27 AM CDT 8:13 PM CDT
Moon 9:20 PM CDT (10/26) 11:26 AM CDT (10/26)
Length of Visible Light 11h 47m
Length of Day
10h 55m
Waning Gibbous, 87% of the Moon is Illuminated
Oct 26
Waning Gibbous
Oct 30
Last Quarter
Nov 5
New
Nov 13
First Quarter
Nov 21
Full

Hourly Weather History & Observations

Time (CDT) Temp. Dew Point Humidity Pressure Visibility Wind Dir Wind Speed Gust Speed Precip Events Conditions
12:53 AM 55.0 °F 44.1 °F 67% 29.51 in 10.0 mi NNW 6.9 mph - N/A   Overcast
1:53 AM 54.0 °F 44.1 °F 69% 29.54 in 10.0 mi NNW 4.6 mph - N/A   Mostly Cloudy
2:53 AM 54.0 °F 42.1 °F 64% 29.56 in 10.0 mi NW 15.0 mph - N/A   Partly Cloudy
3:53 AM 52.0 °F 41.0 °F 66% 29.58 in 10.0 mi NW 17.3 mph - N/A   Clear
4:53 AM 51.1 °F 41.0 °F 68% 29.61 in 10.0 mi WNW 12.7 mph - N/A   Clear
5:53 AM 50.0 °F 36.0 °F 59% 29.64 in 10.0 mi WNW 11.5 mph - N/A   Clear
6:53 AM 50.0 °F 34.0 °F 54% 29.66 in 10.0 mi WNW 17.3 mph - N/A   Clear
7:53 AM 48.9 °F 32.0 °F 52% 29.70 in 10.0 mi WNW 12.7 mph - N/A   Clear
8:53 AM 50.0 °F 32.0 °F 50% 29.71 in 10.0 mi West 12.7 mph - N/A   Clear
9:53 AM 55.0 °F 32.0 °F 42% 29.74 in 10.0 mi West 11.5 mph - N/A   Clear
10:53 AM 59.0 °F 32.0 °F 36% 29.75 in 10.0 mi West 10.4 mph - N/A   Clear
11:53 AM 63.0 °F 32.0 °F 31% 29.75 in 10.0 mi SW 9.2 mph - N/A   Clear
12:53 PM 64.0 °F 34.0 °F 33% 29.73 in 10.0 mi SSW 18.4 mph - N/A   Clear
1:53 PM 64.9 °F 30.0 °F 27% 29.69 in 10.0 mi SSW 20.7 mph 25.3 mph N/A   Clear
3:53 PM 68.0 °F 27.0 °F 21% 29.64 in 10.0 mi SW 18.4 mph - N/A   Clear
4:53 PM 68.0 °F 28.0 °F 22% 29.64 in 10.0 mi SSW 17.3 mph - N/A   Clear
5:53 PM 66.9 °F 28.0 °F 23% 29.62 in 10.0 mi SSW 13.8 mph 23.0 mph N/A   Clear
6:53 PM 60.1 °F 37.9 °F 44% 29.63 in 10.0 mi South 9.2 mph - N/A   Clear
7:53 PM 60.1 °F 34.0 °F 38% 29.65 in 10.0 mi South 17.3 mph - N/A   Clear
8:53 PM 57.0 °F 36.0 °F 45% 29.68 in 10.0 mi South 13.8 mph - N/A   Clear
9:53 PM 53.1 °F 37.9 °F 57% 29.70 in 10.0 mi SSW 8.1 mph - N/A   Clear
10:53 PM 52.0 °F 37.9 °F 59% 29.70 in 10.0 mi South 11.5 mph - N/A   Clear
11:53 PM 51.1 °F 39.0 °F 63% 29.73 in 10.0 mi WSW 8.1 mph - N/A   Clear